Torna al catalogo

NATO 3D

AttivoMilitareGEO
NORAD 15391·PAYLOAD· XX

Lanciato Nov 14, 1984 da Cape Canaveral Space Force Station

Loading…

TLE

AggiornatoSource: Space-Track

Epoca: Sep 14, 2026, 12:27 UTC

1 15391U 84115A   26257.51926552 -.00000134  00000-0  00000-0 0  9994
2 15391  14.2740 354.8510 0099274 133.6230 252.1586  0.94955138148730

Traccia NATO 3D in tempo reale con AllMySat

Download on the App Store